Temp
22 22 22 22 24 24 25 26 27 26 26 25 26 26 23 24 24 23 20 21 22 21 21 21 21 20 20 21 21 21 20 20 20 20 20 20 21 20 20 21 21 21 21 21 21 21 21 21 21
22 22 22 22 24 24 24 26 27 26 25 25 25 24 23 23 22 19 20 21 22 21 21 21 21 20 20 21 21 21 21 20 20 20 20 20 20 20 21 21 21 21 21 21 21 21 21 21 21
23 22 22 23 24 25 24 26 26 24 25 25 24 23 23 22 21 20 22 22 22 22 21 21 21 21 21 20 21 21 21 21 20 20 20 20 21 21 21 21 21 21 21 21 21 21 21 21 21
23 22 22 25 26 27 26 26 26 25 25 25 24 23 23 23 22 22 22 22 22 21 21 21 20 21 21 21 20 21 21 21 20 20 20 20 20 20 20 21 20 21 21 21 21 21 20 20 20
23 22 25 26 27 27 26 27 27 27 25 25 26 24 22 23 23 22 21 22 22 21 21 21 21 21 21 20 20 21 20 21 20 20 21 20 21 20 20 20 21 21 21 21 21 21 20 21 21
23 22 25 25 27 27 27 28 28 27 27 26 25 24 22 22 22 21 21 22 22 21 21 21 21 21 21 21 20 21 20 20 20 20 20 21 21 21 20 20 21 21 21 21 20 20 20 21 21
24 25 27 27 27 27 27 28 27 26 26 26 26 23 21 22 22 22 22 22 22 21 21 21 21 21 21 21 21 20 20 20 20 20 20 20 21 21 20 20 21 21 21 21 20 20 20 21 21
24 25 28 28 27 27 28 28 27 26 25 26 26 22 22 22 21 21 21 21 21 21 21 21 21 21 21 21 21 21 21 20 20 20 20 20 21 21 21 21 21 21 21 20 20 20 21 21 21
26 25 26 28 27 28 28 27 28 27 25 26 26 24 23 22 21 21 21 21 21 21 21 21 21 21 21 21 20 21 21 21 20 20 20 21 21 21 20 21 21 21 21 21 20 20 21 21 22
25 25 28 29 29 28 28 27 27 26 25 26 24 23 23 21 21 21 20 20 20 21 21 21 21 21 21 21 21 21 21 21 21 21 21 21 21 21 21 21 21 21 21 21 20 20 21 22 22
26 27 28 30 30 29 29 28 28 26 25 25 23 22 22 22 21 21 21 21 21 22 22 22 22 22 21 22 22 21 21 21 21 21 21 21 21 21 21 21 21 21 21 21 21 21 21 22 23
28 29 30 31 30 29 29 28 28 27 27 27 24 23 22 22 21 21 21 21 21 21 22 22 22 22 22 22 23 22 22 22 22 22 21 21 21 21 21 21 21 21 21 21 21 22 22 22 23
29 31 32 31 30 30 30 28 28 28 27 26 25 23 23 22 22 22 22 22 22 22 23 23 23 23 23 23 23 23 22 23 22 22 22 21 21 21 21 22 21 21 21 21 22 22 22 22 22
30 32 31 30 30 30 30 29 29 27 26 25 25 23 23 23 23 22 22 22 23 23 24 24 24 24 24 24 23 23 23 23 23 22 22 22 22 22 21 21 21 21 21 22 22 22 22 22 22
31 31 31 29 31 30 30 29 28 26 26 25 25 24 24 23 23 23 23 23 24 24 25 25 25 24 24 25 24 24 24 23 23 23 23 23 22 22 22 22 22 22 21 21 21 21 22 22 22
30 29 29 29 29 31 30 28 28 26 26 25 25 25 25 24 24 24 24 24 24 25 24 25 25 25 25 25 25 25 24 24 24 24 24 23 22 22 22 22 22 22 22 22 22 22 22 22 22
26 28 29 30 29 30 30 29 26 26 26 25 25 25 25 24 24 25 24 25 25 25 25 25 25 25 25 25 25 25 24 24 24 24 24 24 23 23 22 22 22 22 22 22 22 22 22 22 22
28 29 29 29 29 28 28 28 27 26 26 26 25 25 25 24 24 25 25 25 25 25 26 26 26 26 26 25 25 24 24 24 24 25 24 24 24 23 23 22 22 22 22 22 22 22 22 22 22
28 30 29 28 28 28 28 28 27 26 26 25 25 25 25 25 25 25 25 25 25 26 25 26 26 26 25 25 24 23 24 24 24 24 24 24 24 23 23 23 23 22 23 23 23 23 22 22 21
29 30 29 28 28 27 27 28 27 26 26 26 26 25 26 26 24 25 25 25 25 26 26 26 26 25 25 25 24 24 24 24 24 25 25 24 24 24 23 23 23 23 23 23 23 22 22 22 21
28 29 28 29 27 27 27 27 25 26 26 26 27 27 27 26 25 24 24 25 25 25 26 26 26 26 25 25 24 23 24 24 24 25 24 25 24 23 23 23 23 23 23 24 23 22 22 22 21
27 29 30 28 27 27 26 26 25 25 26 26 27 27 27 27 27 25 24 25 25 26 26 27 27 26 26 25 25 24 25 25 25 25 25 25 25 24 24 24 23 23 23 23 23 23 22 22 21
30 29 29 28 26 27 27 26 28 24 24 26 27 26 27 27 28 26 25 25 25 25 26 27 27 26 26 26 25 25 25 25 25 25 25 24 24 24 24 24 23 23 24 23 23 23 23 22 22
28 27 25 23 23 26 27 27 28 26 28 27 28 27 27 27 27 27 26 26 25 25 25 26 26 26 26 26 26 25 26 25 24 24 24 24 24 24 24 24 24 24 23 23 23 24 23 23 23
25 24 22 25 24 25 23 25 27 29 28 29 28 28 28 28 27 26 25 26 25 25 25 25 26 26 26 26 26 26 26 26 25 25 25 24 24 24 24 24 24 24 24 24 23 24 23 23 23
26 25 23 25 23 25 22 25 28 29 29 28 28 28 26 27 27 26 26 26 26 25 25 25 25 25 25 26 26 26 26 26 25 25 25 25 25 24 24 23 24 23 24 24 24 24 23 23 23
27 27 25 23 22 24 24 25 28 30 30 28 27 27 26 27 27 27 27 27 26 25 25 26 25 25 25 26 26 26 26 26 25 25 26 25 25 24 24 23 23 23 23 23 24 23 23 23 23
28 27 27 22 26 27 25 25 27 30 30 29 27 27 27 27 27 28 27 27 26 26 26 26 26 26 26 26 27 26 26 26 26 26 26 26 25 24 23 23 23 23 23 23 23 23 23 23 24
27 27 24 23 23 25 25 25 26 29 29 29 28 27 26 27 27 28 28 27 27 27 26 26 25 25 25 26 26 26 26 26 25 26 26 26 25 24 23 23 23 23 23 23 23 24 24 24 24
26 27 24 25 27 20 22 26 30 28 29 28 28 27 27 27 28 28 28 27 27 27 26 26 25 25 25 26 25 26 26 26 25 25 26 25 25 24 23 23 23 24 24 24 24 24 25 24 24
Height
758 760 761 760 780 782 795 790 774 784 785 778 781 786 797 795 801 817 797 801 805 809 813 816 819 820 822 823 824 825 825 826 826 827 828 830 832 834 835 834 834 834 835 837 840 841 843 843 845
759 761 762 767 788 803 802 779 783 781 780 779 784 789 796 801 795 799 800 803 806 810 814 817 819 822 823 825 826 827 828 828 829 829 829 831 834 836 837 837 837 838 838 840 842 844 845 847 848
762 764 769 778 790 798 804 782 781 782 781 783 791 791 795 800 797 797 799 802 808 812 815 818 820 823 825 826 828 829 829 830 831 832 831 833 835 837 839 839 840 840 842 842 844 846 847 849 851
763 766 771 786 788 781 782 779 777 783 782 782 786 799 795 796 796 798 801 804 809 814 817 820 823 825 827 829 830 830 831 832 833 833 832 833 836 839 840 841 842 843 845 846 847 848 849 851 853
766 769 782 786 785 779 774 773 774 781 784 785 783 798 799 798 798 800 803 807 812 815 819 822 825 827 829 830 832 832 833 834 835 834 835 835 838 840 842 843 844 845 847 849 850 851 852 853 854
770 772 792 800 786 778 775 771 774 778 781 784 787 792 801 800 800 804 807 810 815 818 821 824 826 828 830 832 833 834 834 835 836 836 836 837 840 842 844 845 846 848 850 851 852 854 854 855 856
770 777 786 787 789 785 779 770 778 783 783 787 782 800 802 801 802 805 809 813 817 820 823 825 827 829 831 832 834 835 836 837 837 838 837 839 841 844 845 846 848 850 852 854 855 856 857 857 858
764 772 781 781 790 789 772 772 772 779 787 780 782 802 806 800 804 807 812 816 819 822 824 826 828 830 831 833 835 836 837 837 838 839 839 840 842 845 847 848 849 850 853 855 857 858 859 859 860
758 782 790 782 785 777 768 777 773 773 782 782 783 787 790 799 805 809 814 818 821 822 824 827 828 831 832 833 835 836 837 838 839 839 840 841 842 845 847 849 850 852 854 857 858 859 860 860 861
768 783 777 760 762 770 768 771 774 782 786 786 789 789 792 798 804 808 812 816 819 820 823 826 828 830 832 833 835 836 837 837 839 839 840 841 842 844 846 849 851 853 855 857 860 861 862 863 863
763 775 759 753 751 756 766 771 767 780 792 781 788 791 793 798 802 806 809 812 813 818 821 824 826 829 831 833 834 835 836 837 838 839 841 842 843 844 847 849 851 853 856 858 860 862 863 864 865
767 751 750 748 749 759 767 765 772 773 773 769 779 784 791 797 800 802 806 809 814 816 819 823 825 827 830 832 833 835 836 837 838 839 840 842 843 845 847 848 850 852 854 857 859 861 862 864 865
759 747 743 743 747 754 757 767 770 773 767 769 779 786 791 797 799 802 804 807 811 814 817 821 824 826 828 831 833 834 834 836 838 839 840 840 842 844 846 848 850 852 853 855 858 860 861 863 864
747 746 748 748 751 752 762 767 765 770 768 774 778 786 790 794 796 800 803 803 806 809 813 817 821 824 826 829 831 832 834 835 837 838 838 839 841 843 845 847 849 850 852 854 857 859 860 862 863
743 762 755 758 755 760 757 776 773 766 768 775 780 784 788 792 796 796 798 801 802 805 809 813 817 821 824 826 829 830 832 834 835 836 837 838 840 842 844 845 847 849 851 854 856 857 859 860 861
759 765 784 766 761 757 761 791 767 764 769 777 780 783 786 788 790 793 797 798 801 805 807 811 815 818 821 824 827 829 830 832 833 834 836 837 839 841 842 844 846 849 850 852 854 856 857 858 860
779 795 785 777 762 762 766 780 769 766 769 775 778 783 785 790 789 790 793 796 799 802 806 810 813 816 818 821 825 828 830 831 832 834 835 837 839 840 841 843 845 847 849 850 852 854 855 856 858
794 786 783 782 768 766 772 773 768 766 769 772 775 778 784 787 785 784 788 793 797 800 804 808 811 815 817 820 823 827 828 830 832 832 833 835 837 839 841 843 845 846 847 849 850 851 853 854 855
773 775 781 771 764 772 774 772 770 766 769 774 775 775 777 777 779 786 787 790 794 797 801 804 808 812 815 817 820 824 826 828 829 831 833 834 838 838 840 841 843 844 845 847 848 850 851 853 855
772 777 778 772 766 775 775 773 762 763 760 761 767 771 769 773 777 779 785 787 789 791 795 799 803 808 812 814 817 821 823 826 828 829 830 832 835 837 839 839 840 842 844 845 847 849 849 851 853
775 778 778 776 773 772 779 781 772 761 761 763 761 761 764 765 769 772 776 781 785 787 789 793 797 803 808 812 815 819 822 825 827 827 829 830 831 830 834 837 837 839 841 843 845 846 848 849 852
788 758 760 773 786 801 780 811 779 767 767 761 757 755 754 758 761 765 769 774 778 779 785 790 793 798 804 809 813 815 817 820 822 823 825 827 829 831 833 834 837 839 839 841 842 844 846 849 850
766 755 764 774 789 790 787 805 771 771 775 757 748 747 745 747 749 755 759 763 767 775 778 783 789 795 801 805 809 812 814 817 819 821 823 825 827 829 831 833 836 837 836 839 840 842 843 846 848
752 766 780 791 801 813 788 794 773 767 746 745 736 735 732 736 740 745 749 756 763 770 775 779 784 789 796 800 804 808 810 813 817 818 821 824 825 827 829 831 833 836 837 838 839 840 841 843 845
766 789 830 824 827 823 797 800 771 733 731 724 730 725 726 729 734 739 745 750 756 763 768 773 778 784 789 795 800 804 807 810 813 816 818 820 822 823 826 828 831 834 836 837 837 838 840 842 843
770 778 817 831 837 814 806 803 760 719 715 714 712 714 718 723 727 729 734 741 746 753 761 768 772 778 784 789 794 799 803 806 809 813 815 817 820 822 824 827 830 832 833 835 835 836 838 840 841
767 779 769 808 817 817 803 776 736 715 712 713 715 715 715 715 719 722 728 734 740 747 754 760 766 772 779 783 789 794 799 803 806 810 813 815 818 821 823 826 829 830 832 833 834 835 837 838 839
745 749 784 804 816 815 802 794 772 732 718 715 716 713 710 709 713 716 722 728 733 738 744 753 759 765 772 779 784 789 794 799 803 808 811 813 816 819 821 825 827 829 831 832 833 835 837 837 837
758 765 776 785 798 811 814 798 733 721 710 709 707 704 707 705 706 710 713 720 726 733 741 747 755 762 768 775 779 784 790 796 801 804 807 811 814 816 819 822 825 827 829 830 832 834 835 835 835
738 749 760 788 788 805 800 779 704 706 703 702 700 698 698 698 701 706 707 716 724 730 736 742 749 757 761 769 775 780 786 792 797 800 804 807 810 813 815 817 820 823 825 827 829 831 832 833 833
Wind_Speed
10 6 2 3 3 4 3 2 3 6 4 2 10 3 7 3 1 2 11 18 26 24 20 17 14 14 12 13 14 14 13 13 14 15 15 15 14 13 14 14 16 18 18 19 19 18 19 18 18
10 5 3 2 3 3 1 2 8 4 7 12 8 9 3 2 3 7 15 18 25 25 21 19 15 13 13 13 13 14 13 12 12 14 15 14 14 13 13 14 15 17 17 18 19 18 17 17 17
9 2 2 2 2 3 3 3 7 13 8 4 4 4 2 4 5 16 9 29 26 24 20 19 16 14 13 12 12 12 12 10 10 12 13 13 13 13 14 14 14 16 16 16 17 17 17 16 16
4 2 1 3 3 3 5 7 10 9 10 5 7 6 3 1 13 12 24 30 27 22 20 17 15 13 12 11 12 12 11 10 10 10 11 12 12 12 13 14 14 15 16 16 16 16 16 16 14
2 1 2 2 3 2 4 8 11 5 4 6 4 5 3 6 6 13 28 27 26 23 20 17 14 12 11 10 10 11 11 10 9 9 10 12 13 13 13 13 14 14 15 15 16 16 14 13 10
1 1 4 2 3 3 4 9 7 5 7 7 6 5 3 13 17 22 27 25 23 23 20 17 15 13 11 10 9 9 10 11 9 9 12 13 15 13 13 13 13 14 13 13 14 13 11 10 9
1 2 2 2 3 2 4 4 5 5 9 4 8 4 2 6 20 25 24 23 22 21 19 17 15 13 11 10 9 8 9 9 10 9 11 13 14 13 13 13 12 12 13 13 13 12 10 9 9
2 2 2 2 4 2 6 3 7 6 3 9 5 5 4 8 22 23 21 21 20 20 18 17 16 14 12 10 8 8 8 8 9 9 10 12 12 13 12 13 13 13 11 12 12 12 10 9 8
1 3 2 3 6 3 9 5 2 7 11 3 4 5 13 25 23 22 20 17 18 17 18 17 16 15 13 11 9 8 7 8 8 8 9 11 14 12 12 13 11 12 12 11 10 9 8 7 7
2 3 5 5 7 5 11 11 8 5 9 3 5 13 28 28 24 20 17 16 19 19 20 18 17 15 14 12 11 10 9 8 9 8 7 9 12 13 12 12 10 10 10 10 9 8 5 5 5
4 4 5 6 8 9 12 6 6 11 4 6 15 17 20 23 20 20 19 24 27 24 21 21 19 17 15 13 12 10 10 9 8 7 6 8 11 13 13 13 12 11 9 10 8 8 7 5 4
3 8 5 5 8 7 11 10 5 9 4 9 19 21 18 16 17 19 19 20 20 24 23 21 19 18 16 14 12 10 10 10 9 9 8 8 10 12 13 14 14 13 11 10 9 8 6 5 5
3 2 5 8 13 9 10 10 6 10 5 15 17 18 17 13 18 19 23 24 23 23 23 22 21 19 17 16 13 11 11 11 8 9 9 10 11 12 13 14 14 13 13 11 10 8 8 6 5
7 3 3 5 7 9 10 4 6 5 11 14 19 18 16 14 18 18 19 23 24 24 24 24 23 21 18 17 15 12 10 10 11 9 8 9 10 12 14 15 14 14 13 12 10 9 8 7 6
6 4 4 5 1 2 7 5 8 8 14 16 16 17 15 14 19 21 25 22 30 28 25 24 24 22 21 18 16 14 13 12 12 10 11 10 11 12 13 14 14 13 14 12 11 10 10 9 8
5 5 2 3 4 1 6 6 3 15 17 16 15 15 14 14 21 24 24 28 29 29 28 25 25 24 23 21 18 15 14 14 12 10 10 11 12 12 11 14 15 12 11 12 12 10 11 10 10
7 3 0 3 2 2 3 4 5 10 13 16 15 13 13 11 14 24 27 30 29 32 28 26 25 23 23 24 21 16 13 13 10 8 11 10 11 11 11 13 14 13 13 12 12 11 11 12 13
5 3 2 3 2 3 1 4 6 12 13 16 15 13 11 13 18 27 25 27 30 31 29 26 24 23 21 21 19 18 14 12 11 9 11 10 11 11 11 11 12 13 14 15 14 14 13 11 9
5 3 6 4 3 3 6 5 5 14 12 12 12 13 13 16 17 25 25 26 29 31 29 28 28 25 22 20 22 20 18 15 14 11 11 12 11 11 12 13 14 14 14 14 12 12 12 11 9
4 4 4 2 1 1 1 7 7 15 19 17 17 14 15 12 9 17 22 24 31 34 33 31 31 31 26 25 26 22 21 16 13 11 12 11 10 11 14 15 16 14 14 14 13 13 11 8 11
3 7 6 4 2 2 3 5 4 6 4 9 12 14 13 16 14 11 17 26 27 31 35 36 35 33 31 28 22 17 16 15 14 15 13 10 15 17 17 17 18 16 16 13 13 13 12 9 5
6 12 4 5 3 3 4 5 6 6 9 10 15 18 18 17 14 12 16 21 27 38 37 36 36 34 33 30 25 26 21 19 20 17 14 14 13 16 17 18 17 16 15 14 14 12 13 10 8
5 5 5 4 3 1 2 1 4 8 8 15 18 18 18 18 19 16 18 28 34 30 37 39 37 35 34 32 30 28 23 19 11 16 15 16 15 15 16 17 18 19 17 16 15 12 10 13 11
8 7 8 4 2 2 3 4 8 6 7 9 15 20 21 18 18 16 26 27 27 27 30 35 36 37 35 34 34 30 26 23 16 15 16 16 16 16 17 16 17 18 16 15 16 13 12 12 11
7 7 3 3 3 6 3 2 10 10 9 6 12 15 16 16 14 15 16 20 23 28 31 35 37 36 37 37 36 34 30 26 22 19 19 17 16 18 18 17 16 16 16 12 12 12 12 13 14
6 8 6 7 5 4 3 6 8 6 4 6 10 8 10 15 15 17 19 24 28 31 32 34 35 35 38 40 38 36 34 29 24 22 20 18 17 15 16 15 12 14 13 12 11 12 12 14 15
6 4 6 7 3 1 4 8 11 9 5 4 8 8 11 14 15 18 16 26 29 31 33 38 35 35 36 41 37 34 35 31 26 22 19 16 13 12 12 12 12 12 11 11 9 8 10 11 12
6 6 3 2 4 4 5 6 6 8 12 6 8 10 9 11 14 15 15 24 30 33 38 36 36 38 39 39 38 35 34 31 26 22 20 18 14 12 12 10 12 11 10 9 8 8 9 12 12
1 1 5 5 4 6 4 7 9 13 11 7 10 9 10 11 15 16 16 26 30 30 30 33 33 33 33 36 36 34 35 32 26 24 21 18 17 14 13 15 16 13 10 9 9 10 11 12 7
6 9 7 5 5 2 3 7 7 13 8 7 8 9 9 9 12 14 17 22 25 28 28 32 31 33 35 37 36 35 34 32 27 25 22 18 17 15 13 11 15 18 14 12 10 10 10 12 8
Wind_Direction
144 146 90 26 38 61 39 44 71 115 117 15 141 168 135 14 167 205 154 151 156 154 152 144 140 130 124 111 106 108 117 120 124 126 124 125 129 126 120 115 112 111 105 107 106 107 107 107 105
151 130 30 8 69 67 22 321 120 85 103 103 84 103 150 90 79 109 133 159 159 154 152 145 149 137 129 117 110 106 107 123 129 127 125 128 131 132 127 120 117 113 111 111 109 113 113 114 109
142 55 50 23 108 116 157 160 139 129 147 90 109 57 129 154 103 149 165 158 159 158 155 151 152 143 132 124 116 107 102 94 121 125 121 130 136 138 130 125 122 114 117 117 116 119 119 119 117
139 37 321 74 72 60 137 143 130 137 108 123 162 82 94 145 145 175 163 160 162 162 160 153 153 146 138 128 123 113 102 96 95 121 116 128 138 138 133 129 123 124 118 121 123 121 120 119 120
133 59 52 76 54 52 71 120 144 132 127 138 134 128 67 107 121 157 159 162 164 162 162 157 155 148 145 136 129 123 116 106 93 105 108 128 138 139 135 133 130 122 123 126 127 126 123 122 126
55 35 50 30 69 61 73 143 140 117 124 128 109 101 83 136 128 146 160 166 167 163 163 161 160 157 155 144 139 130 124 120 110 99 116 119 133 139 138 132 134 130 126 127 129 123 112 108 110
155 106 97 93 72 74 146 171 120 111 121 105 130 82 83 127 146 158 165 168 171 169 168 168 169 165 162 157 149 143 131 124 118 112 112 117 128 136 143 135 130 129 122 133 132 124 113 101 97
174 101 93 135 160 241 145 126 133 112 81 122 149 148 176 146 144 156 163 169 173 176 178 178 177 175 174 167 166 155 143 134 123 123 120 127 132 142 149 140 130 127 127 137 136 130 122 100 88
230 62 151 182 148 170 145 128 145 100 135 183 159 141 137 138 138 140 153 165 177 185 188 189 188 186 184 179 175 175 167 151 140 137 139 147 147 151 149 149 139 139 137 139 139 135 132 117 102
158 117 215 195 168 159 161 142 140 121 158 135 78 105 129 140 144 144 158 166 183 191 195 197 198 196 193 191 185 194 190 175 160 160 176 163 161 162 165 162 158 156 152 149 149 147 146 142 115
189 202 201 202 161 145 157 140 159 131 199 200 156 148 142 148 156 159 171 181 190 196 199 202 201 202 201 201 201 205 205 195 185 180 156 167 175 179 180 172 174 178 174 172 171 174 185 171 153
215 239 237 149 141 135 163 142 165 174 213 161 157 154 150 164 165 173 179 190 188 197 203 206 206 208 206 207 208 211 211 204 201 197 195 194 187 189 193 191 188 190 193 197 196 195 204 204 199
237 274 153 148 162 144 146 173 173 197 108 134 146 152 159 167 175 187 186 196 198 201 206 208 209 212 213 213 215 217 219 216 214 211 205 207 206 203 203 201 202 203 207 212 215 219 218 217 223
193 123 103 150 156 153 161 154 144 136 132 134 155 162 164 174 181 182 189 196 199 204 206 208 211 210 211 217 218 220 220 228 225 219 211 215 216 213 210 211 211 209 216 220 226 232 237 240 237
103 77 54 25 93 77 124 127 212 147 147 148 166 171 169 175 185 195 198 200 204 204 204 205 207 210 214 216 218 221 229 233 237 239 226 224 219 217 214 211 213 212 218 224 236 243 250 251 244
80 67 121 330 315 66 128 250 287 159 153 162 167 177 183 187 191 202 204 207 211 211 209 206 207 213 218 225 228 234 238 237 237 235 219 222 223 220 218 215 216 215 215 221 230 242 250 256 256
18 176 234 307 35 201 160 238 162 172 166 167 172 184 187 193 209 205 208 215 218 218 216 213 214 220 227 229 229 233 236 216 226 232 215 220 225 227 224 221 216 216 222 226 229 234 242 259 263
192 175 266 202 267 9 267 231 166 178 173 179 180 181 189 197 209 218 208 210 217 221 219 218 217 224 231 224 220 218 216 219 224 232 225 228 224 225 229 228 222 222 231 235 237 240 240 251 265
139 142 195 231 200 155 217 269 212 175 181 185 194 191 192 204 203 216 215 206 211 220 220 216 216 219 219 207 195 203 212 215 215 224 231 235 230 225 226 222 221 223 234 243 249 239 235 245 243
130 193 242 307 120 142 305 245 198 185 195 189 191 201 203 210 191 204 215 202 206 214 217 218 215 214 214 208 205 210 216 216 220 224 232 227 221 241 234 227 222 223 231 229 232 231 231 238 224
189 201 210 215 134 180 316 273 225 198 172 194 207 208 209 202 205 197 195 203 201 210 216 216 216 218 214 215 211 204 210 218 223 231 222 214 212 219 233 233 227 226 237 224 225 231 226 222 216
196 226 208 134 95 227 102 286 248 201 206 209 204 205 206 206 207 196 192 197 202 214 219 217 217 219 215 215 214 205 202 208 217 225 220 220 215 222 230 232 228 228 219 224 227 232 224 221 213
233 126 117 96 85 20 224 42 262 121 223 231 210 206 204 203 202 195 190 197 206 205 212 217 215 216 215 215 218 215 213 217 223 224 219 221 225 227 227 236 237 234 227 227 226 224 223 221 226
137 73 44 62 86 313 230 129 285 180 204 194 209 209 200 195 201 196 193 193 198 201 203 209 212 215 217 219 218 220 218 220 217 217 216 221 226 221 220 227 232 236 237 235 224 225 231 225 229
82 76 19 354 0 229 275 93 241 275 231 233 196 209 201 203 189 182 180 183 183 190 198 205 211 214 216 217 219 223 226 225 226 233 221 220 220 220 217 222 226 229 232 236 223 227 236 229 231
182 149 153 189 206 252 74 232 251 245 259 203 195 195 171 187 192 185 184 183 183 189 194 199 206 211 215 217 222 224 228 227 229 232 228 228 231 235 229 223 222 223 221 218 221 235 233 228 236
183 160 176 102 23 80 222 282 302 282 319 176 195 191 190 186 185 193 183 182 184 187 191 201 203 208 214 219 220 222 223 226 230 228 232 239 239 240 218 220 221 216 211 215 218 230 222 230 240
158 162 84 15 147 232 284 289 246 288 283 193 209 206 208 189 190 192 185 185 186 190 194 200 200 206 212 217 219 221 221 222 223 227 230 234 233 235 222 218 208 210 208 205 213 227 229 237 245
43 159 57 122 135 171 211 257 224 245 250 250 226 209 204 189 186 188 186 187 187 188 189 195 195 199 204 215 218 217 221 220 225 227 228 235 236 238 229 224 216 214 209 209 222 231 233 233 249
171 194 151 134 237 236 199 262 230 235 249 244 228 215 200 190 178 188 187 176 176 183 190 189 191 197 202 210 216 217 221 221 226 225 229 233 236 236 244 219 213 215 217 218 215 219 219 228 250